,,,PA_Meas_PMT16A,,PR_Meas_QMR101_102,,RH_Meas_QMH101,,SR_Meas_QMS101,,TA_Meas_QMH101,,GenWind,,GenWind,
date,time,status,PA,status,PR,status,RH,status,SR,status,TA,status,DirAvg,status,SpdAvg,
2010-06-21, 00:00:04,VALID,1001.65,VALID,0,VALID,90.9527,VALID,0,VALID,23.0166,VALID,151,VALID,0.550781,
2010-06-21, 00:01:04,VALID,1001.66,VALID,0,VALID,91.1511,VALID,0,VALID,22.9988,VALID,151,VALID,0.412891,
2010-06-21, 00:02:04,VALID,1001.67,VALID,0,VALID,91.1206,VALID,0,VALID,22.9793,VALID,151,VALID,0.207422,
2010-06-21, 00:03:04,VALID,1001.65,VALID,0,VALID,91.1968,VALID,0,VALID,22.9581,VALID,151,VALID,0.130859,
2010-06-21, 00:04:04,VALID,1001.63,VALID,0,VALID,91.2426,VALID,0,VALID,22.9598,VALID,151,VALID,0,
2010-06-21, 00:05:04,VALID,1001.61,VALID,0,VALID,91.2426,VALID,0,VALID,22.9403,VALID,151,VALID,0,
2010-06-21, 00:06:04,VALID,1001.6,VALID,0,VALID,91.3647,VALID,0,VALID,22.919,VALID,151,VALID,0.112891,
2010-06-21, 00:07:04,VALID,1001.6,VALID,0,VALID,91.3494,VALID,0,VALID,22.9013,VALID,151,VALID,0.0304688,
2010-06-21, 00:08:04,VALID,1001.56,VALID,0,VALID,91.2655,VALID,0,VALID,22.9013,VALID,151,VALID,0,
2010-06-21, 00:09:04,VALID,1001.55,VALID,0,VALID,91.3189,VALID,0,VALID,22.88,VALID,151,VALID,0,
2010-06-21, 00:10:04,VALID,1001.53,VALID,0,VALID,91.0824,VALID,0,VALID,22.8623,VALID,151,VALID,0.321484,
2010-06-21, 00:11:04,VALID,1001.49,VALID,0,VALID,90.9603,VALID,0,VALID,22.8818,VALID,151,VALID,0.249609,
2010-06-21, 00:12:04,VALID,1001.49,VALID,0,VALID,90.8535,VALID,0,VALID,22.8605,VALID,151,VALID,0.252734,
2010-06-21, 00:13:04,VALID,1001.45,VALID,0,VALID,90.8993,VALID,0,VALID,22.8818,VALID,151,VALID,0.178516,
2010-06-21, 00:14:04,VALID,1001.46,VALID,0,VALID,90.9298,VALID,0,VALID,22.841,VALID,151,VALID,0.376953,
2010-06-21, 00:15:04,VALID,1001.46,VALID,0,VALID,91.0595,VALID,0,VALID,22.8215,VALID,151,VALID,0.142188,
2010-06-21, 00:16:04,VALID,1001.49,VALID,0,VALID,91.1892,VALID,0,VALID,22.7825,VALID,151,VALID,0.313281,
2010-06-21, 00:17:04,VALID,1001.47,VALID,0,VALID,91.4944,VALID,0,VALID,22.7825,VALID,151,VALID,0.471094,
2010-06-21, 00:18:04,VALID,1001.46,VALID,0,VALID,91.6317,VALID,0,VALID,22.7435,VALID,63,VALID,0.516406,
2010-06-21, 00:19:04,VALID,1001.44,VALID,0,VALID,91.8301,VALID,0,VALID,22.7452,VALID,63,VALID,0.501172,
2010-06-21, 00:20:04,VALID,1001.44,VALID,0,VALID,92.0056,VALID,0,VALID,22.7062,VALID,63,VALID,0.36875,
2010-06-21, 00:21:04,VALID,1001.43,VALID,0,VALID,92.1887,VALID,0,VALID,22.646,VALID,63,VALID,0.182422,
2010-06-21, 00:22:04,VALID,1001.41,VALID,0,VALID,92.2879,VALID,0,VALID,22.6477,VALID,63,VALID,0,
2010-06-21, 00:23:04,VALID,1001.38,VALID,0,VALID,92.3337,VALID,0,VALID,22.6282,VALID,63,VALID,0,
2010-06-21, 00:24:04,VALID,1001.38,VALID,0,VALID,92.4405,VALID,0,VALID,22.5874,VALID,63,VALID,0,
2010-06-21, 00:25:04,VALID,1001.32,VALID,0.5,VALID,92.4939,VALID,0,VALID,22.5696,VALID,63,VALID,0,
2010-06-21, 00:26:04,VALID,1001.32,VALID,0,VALID,92.5702,VALID,0,VALID,22.5484,VALID,63,VALID,0,
2010-06-21, 00:27:04,VALID,1001.28,VALID,0,VALID,92.6083,VALID,0,VALID,22.5501,VALID,63,VALID,0,
2010-06-21, 00:28:04,VALID,1001.27,VALID,0,VALID,92.7457,VALID,0,VALID,22.5501,VALID,63,VALID,0,
2010-06-21, 00:29:04,VALID,1001.26,VALID,0,VALID,92.8296,VALID,0,VALID,22.5306,VALID,63,VALID,0,
2010-06-21, 00:30:04,VALID,1001.24,VALID,0,VALID,92.9364,VALID,0,VALID,22.5111,VALID,63,VALID,0.374219,
2010-06-21, 00:31:04,VALID,1001.23,VALID,0,VALID,93.028,VALID,0,VALID,22.5306,VALID,63,VALID,0.454688,
2010-06-21, 00:32:04,VALID,1001.23,VALID,0,VALID,93.1043,VALID,0,VALID,22.5289,VALID,63,VALID,0.520703,
2010-06-21, 00:33:04,VALID,1001.2,VALID,0,VALID,93.1577,VALID,0,VALID,22.5696,VALID,63,VALID,0.586719,
2010-06-21, 00:34:04,VALID,1001.19,VALID,0,VALID,93.1882,VALID,0,VALID,22.5892,VALID,63,VALID,0.697266,
2010-06-21, 00:35:04,VALID,1001.19,VALID,0,VALID,93.234,VALID,0,VALID,22.6087,VALID,76,VALID,0.604297,
2010-06-21, 00:36:04,VALID,1001.19,VALID,0,VALID,93.234,VALID,0,VALID,22.5874,VALID,85,VALID,0.726172,
2010-06-21, 00:37:04,VALID,1001.19,VALID,0,VALID,93.2492,VALID,0,VALID,22.6282,VALID,90,VALID,0.791797,
2010-06-21, 00:38:04,VALID,1001.19,VALID,0,VALID,93.1958,VALID,0,VALID,22.6264,VALID,100,VALID,0.604688,
2010-06-21, 00:39:04,VALID,1001.18,VALID,0,VALID,93.1119,VALID,0,VALID,22.6282,VALID,100,VALID,0.578906,
2010-06-21, 00:40:04,VALID,1001.15,VALID,0,VALID,93.0203,VALID,0,VALID,22.6087,VALID,100,VALID,0.514063,
2010-06-21, 00:41:04,VALID,1001.14,VALID,0,VALID,92.944,VALID,0,VALID,22.5874,VALID,100,VALID,0.546094,
2010-06-21, 00:42:04,VALID,1001.12,VALID,0,VALID,93.0127,VALID,0,VALID,22.6069,VALID,100,VALID,0.565234,
2010-06-21, 00:43:04,VALID,1001.09,VALID,0,VALID,93.0203,VALID,0,VALID,22.6282,VALID,100,VALID,0.59375,
2010-06-21, 00:44:04,VALID,1001.07,VALID,0,VALID,93.0661,VALID,0,VALID,22.6282,VALID,100,VALID,0.659375,
2010-06-21, 00:45:04,VALID,1001.05,VALID,0,VALID,93.089,VALID,0,VALID,22.6069,VALID,100,VALID,0.672656,
2010-06-21, 00:46:04,VALID,1001.03,VALID,0,VALID,93.028,VALID,0,VALID,22.6087,VALID,101,VALID,0.522266,
2010-06-21, 00:47:04,VALID,1001.01,VALID,0,VALID,92.9745,VALID,0,VALID,22.5679,VALID,110,VALID,0.546875,
2010-06-21, 00:48:04,VALID,1001.02,VALID,0,VALID,92.8677,VALID,0,VALID,22.5679,VALID,110,VALID,0.517578,
2010-06-21, 00:49:04,VALID,1000.99,VALID,0,VALID,92.7914,VALID,0,VALID,22.5289,VALID,110,VALID,0.450781,
2010-06-21, 00:50:04,VALID,1000.99,VALID,0,VALID,92.7304,VALID,0,VALID,22.5501,VALID,110,VALID,0.442969,
2010-06-21, 00:51:04,VALID,1000.98,VALID,0,VALID,92.6923,VALID,0,VALID,22.5501,VALID,110,VALID,0.300781,
2010-06-21, 00:52:04,VALID,1000.97,VALID,0,VALID,92.7151,VALID,0,VALID,22.5094,VALID,110,VALID,0.214062,
2010-06-21, 00:53:04,VALID,1000.96,VALID,0,VALID,92.7762,VALID,0,VALID,22.5094,VALID,110,VALID,0.207422,
2010-06-21, 00:54:04,VALID,1000.98,VALID,0,VALID,92.8448,VALID,0,VALID,22.5094,VALID,110,VALID,0.244141,
2010-06-21, 00:55:04,VALID,1000.96,VALID,0,VALID,92.9288,VALID,0,VALID,22.5094,VALID,80,VALID,0.422656,
2010-06-21, 00:56:04,VALID,1000.97,VALID,0,VALID,92.8448,VALID,0,VALID,22.4899,VALID,80,VALID,0.410547,
2010-06-21, 00:57:04,VALID,1000.99,VALID,0,VALID,92.7991,VALID,0,VALID,22.5111,VALID,79,VALID,0.45,
2010-06-21, 00:58:04,VALID,1001,VALID,0,VALID,92.7838,VALID,0,VALID,22.4916,VALID,68,VALID,0.551172,
2010-06-21, 00:59:04,VALID,1001.01,VALID,0,VALID,92.8372,VALID,0,VALID,22.4721,VALID,52,VALID,0.594531,
2010-06-21, 01:00:04,VALID,1001,VALID,0,VALID,92.9211,VALID,0,VALID,22.4721,VALID,52,VALID,0.535937,
2010-06-21, 01:01:04,VALID,1001.01,VALID,0,VALID,92.9593,VALID,0,VALID,22.4721,VALID,52,VALID,0.626953,
2010-06-21, 01:02:04,VALID,1001.01,VALID,0,VALID,93.0127,VALID,0,VALID,22.4509,VALID,27,VALID,0.779688,
2010-06-21, 01:03:04,VALID,1000.99,VALID,0,VALID,93.0203,VALID,0,VALID,22.4509,VALID,13,VALID,0.855078,
2010-06-21, 01:04:04,VALID,1000.98,VALID,0,VALID,93.0432,VALID,0,VALID,22.4916,VALID,350,VALID,0.7125,
2010-06-21, 01:05:04,VALID,1000.98,VALID,0,VALID,93.0661,VALID,0,VALID,22.4916,VALID,347,VALID,0.785156,
2010-06-21, 01:06:04,VALID,1000.95,VALID,0,VALID,93.0585,VALID,0,VALID,22.4916,VALID,344,VALID,0.676172,
2010-06-21, 01:07:04,VALID,1000.92,VALID,0,VALID,93.0585,VALID,0,VALID,22.4899,VALID,344,VALID,0.480078,
2010-06-21, 01:08:04,VALID,1000.9,VALID,0,VALID,93.0737,VALID,0,VALID,22.4899,VALID,344,VALID,0.592188,
2010-06-21, 01:09:04,VALID,1000.89,VALID,0,VALID,93.0966,VALID,0,VALID,22.5306,VALID,344,VALID,0.420703,
2010-06-21, 01:10:04,VALID,1000.85,VALID,0,VALID,93.1119,VALID,0,VALID,22.5111,VALID,344,VALID,0.357812,
2010-06-21, 01:11:04,VALID,1000.85,VALID,0,VALID,93.1653,VALID,0,VALID,22.5094,VALID,344,VALID,0.496875,
2010-06-21, 01:12:04,VALID,1000.86,VALID,0,VALID,93.1882,VALID,0,VALID,22.5289,VALID,344,VALID,0.445703,
2010-06-21, 01:13:04,VALID,1000.84,VALID,0,VALID,93.2263,VALID,0,VALID,22.5094,VALID,344,VALID,0.394141,
2010-06-21, 01:14:04,VALID,1000.81,VALID,0,VALID,93.2721,VALID,0,VALID,22.5306,VALID,344,VALID,0.448047,
2010-06-21, 01:15:04,VALID,1000.82,VALID,0,VALID,93.2874,VALID,0,VALID,22.5094,VALID,344,VALID,0.369141,
2010-06-21, 01:16:04,VALID,1000.78,VALID,0,VALID,93.2797,VALID,0,VALID,22.5094,VALID,344,VALID,0.201953,
2010-06-21, 01:17:04,VALID,1000.76,VALID,0,VALID,93.295,VALID,0,VALID,22.5306,VALID,344,VALID,0.0175781,
2010-06-21, 01:18:04,VALID,1000.74,VALID,0,VALID,93.3103,VALID,0,VALID,22.5111,VALID,344,VALID,0,
2010-06-21, 01:19:04,VALID,1000.72,VALID,0,VALID,93.3179,VALID,0,VALID,22.4899,VALID,344,VALID,0.0320312,
2010-06-21, 01:20:04,VALID,1000.74,VALID,0,VALID,93.3789,VALID,0,VALID,22.5111,VALID,344,VALID,0.123828,
2010-06-21, 01:21:04,VALID,1000.73,VALID,0,VALID,93.3713,VALID,0,VALID,22.5111,VALID,344,VALID,0,
2010-06-21, 01:22:04,VALID,1000.76,VALID,0,VALID,93.3942,VALID,0,VALID,22.4916,VALID,344,VALID,0,
2010-06-21, 01:23:04,VALID,1000.74,VALID,0,VALID,93.4323,VALID,0,VALID,22.4704,VALID,344,VALID,0.382031,
2010-06-21, 01:24:04,VALID,1000.76,VALID,0,VALID,93.4857,VALID,0,VALID,22.5111,VALID,344,VALID,0.547266,
2010-06-21, 01:25:04,VALID,1000.73,VALID,0,VALID,93.5163,VALID,0,VALID,22.4899,VALID,344,VALID,0.585547,
2010-06-21, 01:26:04,VALID,1000.75,VALID,0,VALID,93.5468,VALID,0,VALID,22.5289,VALID,344,VALID,0.751953,
2010-06-21, 01:27:04,VALID,1000.73,VALID,0,VALID,93.5544,VALID,0.112286,VALID,22.5289,VALID,344,VALID,0.642187,
2010-06-21, 01:28:04,VALID,1000.71,VALID,0,VALID,93.6002,VALID,0,VALID,22.5501,VALID,344,VALID,0.603125,
2010-06-21, 01:29:04,VALID,1000.73,VALID,0,VALID,93.5849,VALID,0,VALID,22.5289,VALID,344,VALID,0.442187,
2010-06-21, 01:30:04,VALID,1000.74,VALID,0,VALID,93.6078,VALID,0,VALID,22.5289,VALID,344,VALID,0.312109,
2010-06-21, 01:31:04,VALID,1000.75,VALID,0,VALID,93.6002,VALID,0,VALID,22.5696,VALID,344,VALID,0.250781,
2010-06-21, 01:32:04,VALID,1000.75,VALID,0,VALID,93.6154,VALID,0,VALID,22.5484,VALID,344,VALID,0.163281,
2010-06-21, 01:33:04,VALID,1000.78,VALID,0,VALID,93.5926,VALID,0,VALID,22.5501,VALID,344,VALID,0,
2010-06-21, 01:34:04,VALID,1000.79,VALID,0,VALID,93.5544,VALID,0,VALID,22.5306,VALID,359,VALID,0.206641,
2010-06-21, 01:35:04,VALID,1000.77,VALID,0,VALID,93.4934,VALID,0,VALID,22.4899,VALID,10,VALID,0.207031,
2010-06-21, 01:36:04,VALID,1000.78,VALID,0,VALID,93.4323,VALID,0,VALID,22.5111,VALID,10,VALID,0.304297,
2010-06-21, 01:37:04,VALID,1000.8,VALID,0,VALID,93.356,VALID,0,VALID,22.5111,VALID,10,VALID,0.271875,
2010-06-21, 01:38:04,VALID,1000.81,VALID,0,VALID,93.2568,VALID,0,VALID,22.4704,VALID,10,VALID,0.711328,
2010-06-21, 01:39:04,VALID,1000.77,VALID,0,VALID,93.1958,VALID,0,VALID,22.4509,VALID,10,VALID,0.639453,
2010-06-21, 01:40:04,VALID,1000.76,VALID,0,VALID,93.15,VALID,0,VALID,22.4331,VALID,10,VALID,0.454297,
2010-06-21, 01:41:04,VALID,1000.73,VALID,0,VALID,93.1348,VALID,0,VALID,22.4331,VALID,10,VALID,0.466406,
2010-06-21, 01:42:04,VALID,1000.73,VALID,0,VALID,93.1653,VALID,0,VALID,22.3924,VALID,10,VALID,0.482422,
2010-06-21, 01:43:04,VALID,1000.7,VALID,0,VALID,93.234,VALID,0,VALID,22.4136,VALID,10,VALID,0.485547,
2010-06-21, 01:44:04,VALID,1000.66,VALID,0,VALID,93.3255,VALID,0,VALID,22.4331,VALID,10,VALID,0.316797,
2010-06-21, 01:45:04,VALID,1000.65,VALID,0,VALID,93.3789,VALID,0,VALID,22.3924,VALID,10,VALID,0.257422,
2010-06-21, 01:46:04,VALID,1000.68,VALID,0,VALID,93.4018,VALID,0,VALID,22.3941,VALID,10,VALID,0.297266,
2010-06-21, 01:47:04,VALID,1000.66,VALID,0,VALID,93.4781,VALID,0,VALID,22.4136,VALID,10,VALID,0.337891,
2010-06-21, 01:48:04,VALID,1000.63,VALID,0,VALID,93.5239,VALID,0,VALID,22.4136,VALID,10,VALID,0.398047,
2010-06-21, 01:49:04,VALID,1000.63,VALID,0,VALID,93.562,VALID,0,VALID,22.4331,VALID,10,VALID,0.515625,
2010-06-21, 01:50:04,VALID,1000.66,VALID,0,VALID,93.5849,VALID,0,VALID,22.3924,VALID,10,VALID,0.661328,
2010-06-21, 01:51:04,VALID,1000.66,VALID,0,VALID,93.6231,VALID,0,VALID,22.3924,VALID,20,VALID,0.669531,
2010-06-21, 01:52:04,VALID,1000.66,VALID,0,VALID,93.646,VALID,0,VALID,22.3941,VALID,35,VALID,0.712109,
2010-06-21, 01:53:04,VALID,1000.68,VALID,0,VALID,93.6612,VALID,0,VALID,22.3941,VALID,58,VALID,0.822266,
2010-06-21, 01:54:04,VALID,1000.69,VALID,0,VALID,93.6612,VALID,0,VALID,22.3746,VALID,66,VALID,0.864062,
2010-06-21, 01:55:04,VALID,1000.71,VALID,0,VALID,93.6841,VALID,0,VALID,22.3534,VALID,68,VALID,0.746875,
2010-06-21, 01:56:04,VALID,1000.68,VALID,0,VALID,93.6917,VALID,0,VALID,22.3551,VALID,68,VALID,0.582422,
2010-06-21, 01:57:04,VALID,1000.67,VALID,0,VALID,93.6917,VALID,0,VALID,22.3144,VALID,68,VALID,0.415234,
2010-06-21, 01:58:04,VALID,1000.64,VALID,0,VALID,93.7299,VALID,0,VALID,22.3339,VALID,68,VALID,0.344531,
2010-06-21, 01:59:04,VALID,1000.62,VALID,0,VALID,93.7146,VALID,0,VALID,22.3339,VALID,68,VALID,0.214453,
2010-06-21, 02:00:04,VALID,1000.6,VALID,0,VALID,93.7375,VALID,0,VALID,22.3339,VALID,68,VALID,0.100781,
2010-06-21, 02:01:04,VALID,1000.59,VALID,0,VALID,93.7451,VALID,0,VALID,22.3144,VALID,68,VALID,0,
2010-06-21, 02:02:04,VALID,1000.6,VALID,0,VALID,93.7604,VALID,0,VALID,22.3356,VALID,68,VALID,0.119922,
2010-06-21, 02:03:04,VALID,1000.6,VALID,0,VALID,93.7909,VALID,0,VALID,22.3144,VALID,68,VALID,0,
2010-06-21, 02:04:04,VALID,1000.62,VALID,0,VALID,93.7833,VALID,0,VALID,22.3356,VALID,68,VALID,0,
2010-06-21, 02:05:04,VALID,1000.59,VALID,0,VALID,93.7985,VALID,0,VALID,22.3144,VALID,68,VALID,0.148828,
2010-06-21, 02:06:04,VALID,1000.57,VALID,0,VALID,93.7909,VALID,0.112286,VALID,22.3144,VALID,68,VALID,0,
2010-06-21, 02:07:04,VALID,1000.56,VALID,0,VALID,93.8138,VALID,0,VALID,22.3144,VALID,68,VALID,0.158203,
2010-06-21, 02:08:04,VALID,1000.57,VALID,0,VALID,93.8443,VALID,0,VALID,22.3144,VALID,68,VALID,0.208984,
2010-06-21, 02:09:04,VALID,1000.58,VALID,0,VALID,93.8672,VALID,0,VALID,22.3356,VALID,68,VALID,0.363281,
2010-06-21, 02:10:04,VALID,1000.55,VALID,0,VALID,93.8672,VALID,0,VALID,22.3356,VALID,109,VALID,0.376953,
2010-06-21, 02:11:04,VALID,1000.53,VALID,0,VALID,93.8672,VALID,0.112286,VALID,22.3339,VALID,109,VALID,0.59375,
2010-06-21, 02:12:04,VALID,1000.53,VALID,0,VALID,93.852,VALID,0,VALID,22.3356,VALID,122,VALID,0.861328,
2010-06-21, 02:13:04,VALID,1000.52,VALID,0,VALID,93.8443,VALID,0,VALID,22.3144,VALID,124,VALID,0.634375,
2010-06-21, 02:14:04,VALID,1000.52,VALID,0,VALID,93.8596,VALID,0,VALID,22.3356,VALID,124,VALID,0.733984,
2010-06-21, 02:15:04,VALID,1000.51,VALID,0,VALID,93.8138,VALID,0,VALID,22.3161,VALID,124,VALID,0.743359,
2010-06-21, 02:16:04,VALID,1000.51,VALID,0,VALID,93.7604,VALID,0,VALID,22.3144,VALID,124,VALID,0.598437,
2010-06-21, 02:17:04,VALID,1000.52,VALID,0,VALID,93.7375,VALID,0,VALID,22.3551,VALID,124,VALID,0.435937,
2010-06-21, 02:18:04,VALID,1000.51,VALID,0,VALID,93.7146,VALID,0,VALID,22.3339,VALID,122,VALID,0.353516,
2010-06-21, 02:19:04,VALID,1000.53,VALID,0,VALID,93.646,VALID,0,VALID,22.3568,VALID,122,VALID,0.264453,
2010-06-21, 02:20:04,VALID,1000.51,VALID,0,VALID,93.5926,VALID,0,VALID,22.3356,VALID,122,VALID,0.314063,
2010-06-21, 02:21:04,VALID,1000.48,VALID,0,VALID,93.5773,VALID,0,VALID,22.3373,VALID,122,VALID,0.367578,
2010-06-21, 02:22:04,VALID,1000.49,VALID,0,VALID,93.5163,VALID,0,VALID,22.3568,VALID,122,VALID,0.326172,
2010-06-21, 02:23:04,VALID,1000.48,VALID,0,VALID,93.4781,VALID,0,VALID,22.3373,VALID,122,VALID,0.324219,
2010-06-21, 02:24:04,VALID,1000.43,VALID,0,VALID,93.4323,VALID,0,VALID,22.3373,VALID,122,VALID,0.309766,
2010-06-21, 02:25:04,VALID,1000.43,VALID,0,VALID,93.3942,VALID,0,VALID,22.3161,VALID,122,VALID,0.307813,
2010-06-21, 02:26:04,VALID,1000.45,VALID,0,VALID,93.3484,VALID,0,VALID,22.3178,VALID,122,VALID,0.266016,
2010-06-21, 02:27:04,VALID,1000.42,VALID,0,VALID,93.3331,VALID,0,VALID,22.2966,VALID,122,VALID,0.289063,
2010-06-21, 02:28:04,VALID,1000.43,VALID,0,VALID,93.3408,VALID,0,VALID,22.2966,VALID,122,VALID,0.386328,
2010-06-21, 02:29:04,VALID,1000.44,VALID,0,VALID,93.3331,VALID,0,VALID,22.2966,VALID,122,VALID,0.497656,
2010-06-21, 02:30:04,VALID,1000.41,VALID,0,VALID,93.3408,VALID,0,VALID,22.2966,VALID,122,VALID,0.328516,
2010-06-21, 02:31:04,VALID,1000.44,VALID,0,VALID,93.3713,VALID,0,VALID,22.3161,VALID,122,VALID,0.735547,
2010-06-21, 02:32:04,VALID,1000.39,VALID,0,VALID,93.4094,VALID,0,VALID,22.3568,VALID,124,VALID,0.851172,
2010-06-21, 02:33:04,VALID,1000.4,VALID,0,VALID,93.3637,VALID,0,VALID,22.3161,VALID,137,VALID,0.755859,
2010-06-21, 02:34:04,VALID,1000.38,VALID,0,VALID,93.3484,VALID,0,VALID,22.3551,VALID,137,VALID,0.602344,
2010-06-21, 02:35:04,VALID,1000.38,VALID,0,VALID,93.3255,VALID,0,VALID,22.3729,VALID,137,VALID,0.503516,
2010-06-21, 02:36:04,VALID,1000.39,VALID,0,VALID,93.3103,VALID,0,VALID,22.3941,VALID,137,VALID,0.362109,
2010-06-21, 02:37:04,VALID,1000.4,VALID,0,VALID,93.2645,VALID,0,VALID,22.3941,VALID,137,VALID,0.462109,
2010-06-21, 02:38:04,VALID,1000.39,VALID,0,VALID,93.2263,VALID,0.112286,VALID,22.4119,VALID,137,VALID,0.543359,
2010-06-21, 02:39:04,VALID,1000.42,VALID,0,VALID,93.1882,VALID,0,VALID,22.4331,VALID,161,VALID,0.579687,
2010-06-21, 02:40:04,VALID,1000.41,VALID,0,VALID,93.0814,VALID,0,VALID,22.4119,VALID,154,VALID,0.588672,
2010-06-21, 02:41:04,VALID,1000.43,VALID,0,VALID,92.8906,VALID,0,VALID,22.4331,VALID,137,VALID,0.926172,
2010-06-21, 02:42:04,VALID,1000.43,VALID,0,VALID,92.7762,VALID,0,VALID,22.4136,VALID,154,VALID,0.680859,
2010-06-21, 02:43:04,VALID,1000.42,VALID,0,VALID,92.6923,VALID,0,VALID,22.4331,VALID,157,VALID,0.578516,
2010-06-21, 02:44:04,VALID,1000.42,VALID,0,VALID,92.6541,VALID,0,VALID,22.4119,VALID,163,VALID,0.576172,
2010-06-21, 02:45:04,VALID,1000.42,VALID,0,VALID,92.677,VALID,0,VALID,22.3924,VALID,174,VALID,0.451953,
2010-06-21, 02:46:04,VALID,1000.42,VALID,0,VALID,92.677,VALID,0,VALID,22.3924,VALID,174,VALID,0.421875,
2010-06-21, 02:47:04,VALID,1000.41,VALID,0,VALID,92.6694,VALID,0,VALID,22.4136,VALID,174,VALID,0.467578,
2010-06-21, 02:48:04,VALID,1000.39,VALID,0,VALID,92.6617,VALID,0,VALID,22.3941,VALID,174,VALID,0.309766,
2010-06-21, 02:49:04,VALID,1000.4,VALID,0,VALID,92.6617,VALID,0,VALID,22.3941,VALID,174,VALID,0.135547,
2010-06-21, 02:50:04,VALID,1000.41,VALID,0,VALID,92.6846,VALID,0,VALID,22.3729,VALID,174,VALID,0.378516,
2010-06-21, 02:51:04,VALID,1000.37,VALID,0,VALID,92.677,VALID,0,VALID,22.3941,VALID,174,VALID,0.410547,
2010-06-21, 02:52:04,VALID,1000.39,VALID,0,VALID,92.7075,VALID,0,VALID,22.3941,VALID,174,VALID,0.358594,
2010-06-21, 02:53:04,VALID,1000.36,VALID,0,VALID,92.677,VALID,0,VALID,22.3339,VALID,174,VALID,0.1125,
2010-06-21, 02:54:04,VALID,1000.34,VALID,0,VALID,92.7075,VALID,0,VALID,22.3551,VALID,174,VALID,0.0953125,
2010-06-21, 02:55:04,VALID,1000.3,VALID,0,VALID,92.7304,VALID,0,VALID,22.3339,VALID,174,VALID,0.00859375,
2010-06-21, 02:56:04,VALID,1000.31,VALID,0,VALID,92.7533,VALID,0.112286,VALID,22.3339,VALID,174,VALID,0.115234,
2010-06-21, 02:57:04,VALID,1000.29,VALID,0,VALID,92.7075,VALID,0,VALID,22.3161,VALID,174,VALID,0.0105469,
2010-06-21, 02:58:04,VALID,1000.27,VALID,0,VALID,92.6999,VALID,0.112286,VALID,22.2754,VALID,174,VALID,0.272266,
2010-06-21, 02:59:04,VALID,1000.24,VALID,0,VALID,92.822,VALID,0,VALID,22.2966,VALID,152,VALID,0.562891,
2010-06-21, 03:00:04,VALID,1000.22,VALID,0,VALID,92.7304,VALID,0,VALID,22.2949,VALID,141,VALID,0.662109,
2010-06-21, 03:01:04,VALID,1000.22,VALID,0,VALID,92.6465,VALID,0,VALID,22.3551,VALID,150,VALID,0.986719,
2010-06-21, 03:02:04,VALID,1000.23,VALID,0,VALID,92.471,VALID,0,VALID,22.3924,VALID,153,VALID,1.01133,
2010-06-21, 03:03:04,VALID,1000.23,VALID,0,VALID,92.265,VALID,0,VALID,22.4331,VALID,143,VALID,0.951563,
2010-06-21, 03:04:04,VALID,1000.22,VALID,0,VALID,92.0132,VALID,0,VALID,22.5111,VALID,154,VALID,1.20781,
2010-06-21, 03:05:04,VALID,1000.23,VALID,0,VALID,91.7004,VALID,0,VALID,22.5289,VALID,142,VALID,0.762109,
2010-06-21, 03:06:04,VALID,1000.27,VALID,0,VALID,91.5249,VALID,0,VALID,22.5484,VALID,133,VALID,1.18945,
2010-06-21, 03:07:04,VALID,1000.27,VALID,0,VALID,91.2579,VALID,0.112286,VALID,22.5679,VALID,132,VALID,0.985156,
2010-06-21, 03:08:04,VALID,1000.28,VALID,0,VALID,91.1434,VALID,0,VALID,22.5696,VALID,132,VALID,0.807031,
2010-06-21, 03:09:04,VALID,1000.31,VALID,0,VALID,91.0519,VALID,0,VALID,22.5289,VALID,132,VALID,0.696094,
2010-06-21, 03:10:04,VALID,1000.27,VALID,0,VALID,91.1663,VALID,0,VALID,22.4916,VALID,132,VALID,0.793359,
2010-06-21, 03:11:04,VALID,1000.32,VALID,0,VALID,91.502,VALID,0,VALID,22.4721,VALID,133,VALID,0.926562,
2010-06-21, 03:12:04,VALID,1000.31,VALID,0,VALID,91.5326,VALID,0.112286,VALID,22.4526,VALID,130,VALID,1.09727,
2010-06-21, 03:13:04,VALID,1000.31,VALID,0,VALID,91.5478,VALID,0,VALID,22.4331,VALID,131,VALID,1.13281,
2010-06-21, 03:14:04,VALID,1000.34,VALID,0,VALID,91.5478,VALID,0,VALID,22.4331,VALID,129,VALID,0.917188,
2010-06-21, 03:15:04,VALID,1000.35,VALID,0,VALID,91.586,VALID,0,VALID,22.4119,VALID,130,VALID,0.737891,
2010-06-21, 03:16:04,VALID,1000.35,VALID,0,VALID,91.586,VALID,0,VALID,22.4119,VALID,130,VALID,0.513672,
2010-06-21, 03:17:04,VALID,1000.36,VALID,0,VALID,91.6012,VALID,0,VALID,22.3924,VALID,130,VALID,0.474609,
2010-06-21, 03:18:04,VALID,1000.36,VALID,0,VALID,91.6546,VALID,0,VALID,22.3924,VALID,130,VALID,0.375391,
2010-06-21, 03:19:04,VALID,1000.36,VALID,0,VALID,91.7462,VALID,0,VALID,22.4136,VALID,130,VALID,0.221484,
2010-06-21, 03:20:04,VALID,1000.4,VALID,0,VALID,91.6699,VALID,0,VALID,22.3941,VALID,130,VALID,0.244531,
2010-06-21, 03:21:04,VALID,1000.41,VALID,0,VALID,91.5936,VALID,0.112286,VALID,22.3534,VALID,57,VALID,0.470703,
2010-06-21, 03:22:04,VALID,1000.45,VALID,0,VALID,91.792,VALID,0,VALID,22.3356,VALID,44,VALID,0.476953,
2010-06-21, 03:23:04,VALID,1000.45,VALID,0,VALID,92.0285,VALID,0,VALID,22.3144,VALID,45,VALID,0.292188,
2010-06-21, 03:24:04,VALID,1000.46,VALID,0,VALID,92.1429,VALID,0,VALID,22.3144,VALID,45,VALID,0.121094,
2010-06-21, 03:25:04,VALID,1000.42,VALID,0,VALID,92.2268,VALID,0,VALID,22.3144,VALID,45,VALID,0.194922,
2010-06-21, 03:26:04,VALID,1000.43,VALID,0,VALID,92.2345,VALID,0,VALID,22.3144,VALID,45,VALID,0.142969,
2010-06-21, 03:27:04,VALID,1000.42,VALID,0,VALID,92.2421,VALID,0,VALID,22.2949,VALID,45,VALID,0.167578,
2010-06-21, 03:28:04,VALID,1000.41,VALID,0,VALID,92.1734,VALID,0,VALID,22.2966,VALID,45,VALID,0.175781,
2010-06-21, 03:29:04,VALID,1000.41,VALID,0,VALID,92.1506,VALID,0,VALID,22.2364,VALID,45,VALID,0,
2010-06-21, 03:30:04,VALID,1000.41,VALID,0,VALID,92.1429,VALID,0,VALID,22.2381,VALID,44,VALID,0,
2010-06-21, 03:31:04,VALID,1000.42,VALID,0,VALID,92.0971,VALID,0,VALID,22.1795,VALID,44,VALID,0.425,
2010-06-21, 03:32:04,VALID,1000.41,VALID,0,VALID,92.1734,VALID,0,VALID,22.1405,VALID,44,VALID,0.345313,
2010-06-21, 03:33:04,VALID,1000.42,VALID,0,VALID,92.4557,VALID,0,VALID,22.0998,VALID,44,VALID,0.378125,
2010-06-21, 03:34:04,VALID,1000.4,VALID,0,VALID,92.7075,VALID,0,VALID,22.0998,VALID,44,VALID,0.345313,
2010-06-21, 03:35:04,VALID,1000.37,VALID,0,VALID,92.8525,VALID,0,VALID,22.0998,VALID,45,VALID,0.230078,
2010-06-21, 03:36:04,VALID,1000.37,VALID,0,VALID,92.944,VALID,0,VALID,22.0803,VALID,45,VALID,0.15625,
2010-06-21, 03:37:04,VALID,1000.34,VALID,0,VALID,93.0356,VALID,0,VALID,22.1015,VALID,45,VALID,0,
2010-06-21, 03:38:04,VALID,1000.34,VALID,0,VALID,93.0814,VALID,0,VALID,22.0608,VALID,45,VALID,0,
2010-06-21, 03:39:04,VALID,1000.36,VALID,0,VALID,93.0814,VALID,0,VALID,22.0218,VALID,45,VALID,0,
2010-06-21, 03:40:04,VALID,1000.38,VALID,0,VALID,93.0966,VALID,0,VALID,22.0218,VALID,45,VALID,0,
2010-06-21, 03:41:04,VALID,1000.38,VALID,0,VALID,93.1577,VALID,0,VALID,22.0235,VALID,45,VALID,0,
2010-06-21, 03:42:04,VALID,1000.38,VALID,0,VALID,93.234,VALID,0,VALID,22.0235,VALID,45,VALID,0,
2010-06-21, 03:43:04,VALID,1000.36,VALID,0,VALID,93.295,VALID,0,VALID,22.0023,VALID,45,VALID,0.205859,
2010-06-21, 03:44:04,VALID,1000.36,VALID,0,VALID,93.3331,VALID,0,VALID,21.9828,VALID,45,VALID,0.225391,
2010-06-21, 03:45:04,VALID,1000.36,VALID,0,VALID,93.3713,VALID,0,VALID,22.004,VALID,45,VALID,0.357812,
2010-06-21, 03:46:04,VALID,1000.36,VALID,0,VALID,93.3942,VALID,0,VALID,21.9438,VALID,13,VALID,0.932813,